User: anonymous   Login
Location: ?astrovice
(49.6513°N, 14.9287°E)
Time: 17:40:48
(UTC+00:00)
Language:

STARLINK-1234 - Orbit

View from above orbital plane
View from above orbital plane
View from above satellite
View from above satellite

Ground track
Ground track

The orbit data is extracted from the following two-line orbital elements,

1 45190U 20012N   20196.25001157  .00000694  00000-0  66829-4 0  9997
2 45190  53.0004 274.2427 0001222 107.5505 105.4692 15.05575416 23271
Epoch (UTC): 14 July 2020 06:00:01
Eccentricity: 0.0001222
inclination: 53.0004°
perigee height: 549 km
apogee height: 550 km
right ascension of ascending node: 274.2427°
argument of perigee: 107.5505°
revolutions per day: 15.05575416
mean anomaly at epoch: 105.4692°
orbit number at epoch: 2327

The dashed part of the orbit path shows where the satellite is in the earth's shadow,  

DLR